Location: Newark
(39.8867°N, 94.3600°W)
Time: 16:40:54
(UTC+00:00)

N. Korean satellite - Pass Details

Date: 26 January 2020
Orbit: 456 x 506 km, 97.2° (Epoch: 17 February)

Event Time Altitude Azimuth Distance (km) Brightness Sun altitude
Rises 11:35:51 0° 21° (NNE) 2,543 10.4 -22.1°
Reaches altitude 10° 11:38:03 10° 31° (NNE) 1,668 9.6 -21.7°
Maximum altitude 11:41:21 34° 98° (E) 819 8.3 -21.0°
Drops below altitude 10° 11:44:40 10° 165° (SSE) 1,681 9.6 -20.4°
Sets 11:46:53 0° 174° (S) 2,566 10.4 -20.0°
